Notices

What's New in latest release on October 27, 2021:

- Updated email addresses on the CDO Contacts page.

- Updated station operator of Churchill Falls (Climate ID: 8501130).

- Radar site name change from Jimmy Lake to Cold Lake on October 27, 2021.

Hourly Data Report for June 24, 2021

LYTTON RCS
BRITISH COLUMBIA
Current Station Operator: ECCC - MSC

50°13'28.000" N
121°34'55.000" W
225.00 m
1114746
71765
VLY

Download Data

Hourly Data (June 2021)
Hourly Data Report for June 24, 2021
TIME
LST
Temp Definition
°C
Dew Point Definition
°C
Rel Hum Definition
%
Precip. Amount Definition
mm

Wind Dir Definition
10's deg

Wind Spd Definition
km/h
Visibility Definition
km
Stn Press Definition
kPa
Hmdx Definition


Wind Chill Definition


Weather Definition


00:00 22.5 11.8 51 0.0 18 22   98.73 25   LegendNANA
01:00 22.1 12.0 52 0.0 18 21   98.76     LegendNANA
02:00 21.4 12.0 55 0.0 19 18   98.82     LegendNANA
03:00 20.9 12.1 57 0.0 17 18   98.84     LegendNANA
04:00 20.4 12.2 59 0.0 17 20   98.90     LegendNANA
05:00 19.9 12.4 62 0.0 15 7   98.95     LegendNANA
06:00 19.8 12.7 63 0.0 16 7   99.01     LegendNANA
07:00 21.5 12.9 58 0.0 16 10   99.02     LegendNANA
08:00 23.1 13.0 53 0.0 18 5   99.02 26   LegendNANA
09:00 24.2 12.8 49 0.0 18 3   99.00 27   LegendNANA
10:00 25.4 12.9 46 0.0 36 5   98.97 28   LegendNANA
11:00 28.3 12.9 39 0.0 34 4   98.92 31   LegendNANA
12:00 28.7 12.4 37 0.0 35 4   98.88 31   LegendNANA
13:00 29.9 12.6 35 0.0 32 4   98.86 32   LegendNANA
14:00 30.1 11.1 31 0.0 36 9   98.83 32   LegendNANA
15:00 29.3 11.7 34 0.0 35 5   98.83 31   LegendNANA
16:00 29.3 12.2 35 0.0 1 4   98.85 32   LegendNANA
17:00 29.5 11.7 33 0.0 35 5   98.85 32   LegendNANA
18:00 29.1 11.1 33 0.0 34 6   98.87 31   LegendNANA
19:00 28.5 11.3 34 0.0 35 5   98.90 30   LegendNANA
20:00 26.9 11.3 38 0.0 1 3   98.92 29   LegendNANA
21:00 24.8 11.6 44 0.0 36 1   99.01 27   LegendNANA
22:00 23.4 11.6 47 0.0 36 5   99.05 25   LegendNANA
23:00 21.2 10.9 52 0.0 36 5   99.06     LegendNANA

Notes on Data Quality.

Legend

  • E = Estimated
  • M = Missing
  • NA = Not Available*
  • [empty] = Indicates an unobserved value
Date modified: